Year,Month,Day,Hour,Minute,Value (Times are PST for temperature in C)
2014,07,01,00,00,14.10
2014,07,01,00,01,14.00
2014,07,01,00,02,14.00
2014,07,01,00,03,14.00
2014,07,01,00,04,13.90
2014,07,01,00,05,13.90
2014,07,01,00,06,13.80
2014,07,01,00,07,13.80
2014,07,01,00,08,13.80
2014,07,01,00,09,13.80
2014,07,01,00,10,13.70
2014,07,01,00,11,13.70
2014,07,01,00,12,13.70
2014,07,01,00,13,13.70
2014,07,01,00,14,13.60
2014,07,01,00,15,13.60
2014,07,01,00,16,13.60
2014,07,01,00,17,13.60
2014,07,01,00,18,13.60
2014,07,01,00,19,13.60
2014,07,01,00,20,13.50
2014,07,01,00,21,13.50
2014,07,01,00,22,13.50
2014,07,01,00,23,13.50
2014,07,01,00,24,13.50
2014,07,01,00,25,13.50
2014,07,01,00,26,13.50
2014,07,01,00,27,13.50
2014,07,01,00,28,13.50
2014,07,01,00,29,13.40
2014,07,01,00,30,13.40
2014,07,01,00,31,13.40
2014,07,01,00,32,13.40
2014,07,01,00,33,13.40
2014,07,01,00,34,13.40
2014,07,01,00,35,13.40
2014,07,01,00,36,13.40
2014,07,01,00,37,13.40
2014,07,01,00,38,13.40
2014,07,01,00,39,13.30
2014,07,01,00,40,13.30
2014,07,01,00,41,13.30
2014,07,01,00,42,13.30
2014,07,01,00,43,13.30
2014,07,01,00,44,13.20
2014,07,01,00,45,13.20
2014,07,01,00,46,13.20
2014,07,01,00,47,13.20
2014,07,01,00,48,13.20
2014,07,01,00,49,13.20
2014,07,01,00,50,13.20
2014,07,01,00,51,13.20
2014,07,01,00,52,13.20
2014,07,01,00,53,13.20
2014,07,01,00,54,13.20
2014,07,01,00,55,13.30
2014,07,01,00,56,13.30
2014,07,01,00,57,13.30
2014,07,01,00,58,13.30
2014,07,01,00,59,13.30
2014,07,01,01,00,13.30
2014,07,01,01,01,13.30
2014,07,01,01,02,13.30
2014,07,01,01,03,13.30
2014,07,01,01,04,13.30
2014,07,01,01,05,13.30
2014,07,01,01,06,13.30
2014,07,01,01,07,13.30
2014,07,01,01,08,13.30
2014,07,01,01,09,13.20
2014,07,01,01,10,13.20
2014,07,01,01,11,13.20
2014,07,01,01,12,13.20
2014,07,01,01,13,13.20
2014,07,01,01,14,13.20
2014,07,01,01,15,13.20
2014,07,01,01,16,13.20
2014,07,01,01,17,13.20
2014,07,01,01,18,13.20
2014,07,01,01,19,13.20
2014,07,01,01,20,13.20
2014,07,01,01,21,13.20
2014,07,01,01,22,13.20
2014,07,01,01,23,13.10
2014,07,01,01,24,13.10
2014,07,01,01,25,13.10
2014,07,01,01,26,13.10
2014,07,01,01,27,13.10
2014,07,01,01,28,13.10
2014,07,01,01,29,13.10
2014,07,01,01,30,13.10
2014,07,01,01,31,13.10
2014,07,01,01,32,13.10
2014,07,01,01,33,13.10
2014,07,01,01,34,13.00
2014,07,01,01,35,13.00
2014,07,01,01,36,13.00
2014,07,01,01,37,13.00
2014,07,01,01,38,13.00
2014,07,01,01,39,13.00
2014,07,01,01,40,13.00
2014,07,01,01,41,12.90
2014,07,01,01,42,12.90
2014,07,01,01,43,12.90
2014,07,01,01,44,12.90
2014,07,01,01,45,12.90
2014,07,01,01,46,12.90
2014,07,01,01,47,12.90
2014,07,01,01,48,12.90
2014,07,01,01,49,12.90
2014,07,01,01,50,12.90
2014,07,01,01,51,12.90
2014,07,01,01,52,12.90
2014,07,01,01,53,12.90
2014,07,01,01,54,12.90
2014,07,01,01,55,12.80
2014,07,01,01,56,12.80
2014,07,01,01,57,12.80
2014,07,01,01,58,12.80
2014,07,01,01,59,12.80
2014,07,01,02,00,12.80
2014,07,01,02,01,12.80
2014,07,01,02,02,12.70
2014,07,01,02,03,12.70
2014,07,01,02,04,12.70
2014,07,01,02,05,12.70
2014,07,01,02,06,12.70
2014,07,01,02,07,12.70
2014,07,01,02,08,12.70
2014,07,01,02,09,12.70
2014,07,01,02,10,12.70
2014,07,01,02,11,12.70
2014,07,01,02,12,12.70
2014,07,01,02,13,12.60
2014,07,01,02,14,12.60
2014,07,01,02,15,12.60
2014,07,01,02,16,12.60
2014,07,01,02,17,12.60
2014,07,01,02,18,12.60
2014,07,01,02,19,12.70
2014,07,01,02,20,12.70
2014,07,01,02,21,12.70
2014,07,01,02,22,12.70
2014,07,01,02,23,12.70
2014,07,01,02,24,12.70
2014,07,01,02,25,12.70
2014,07,01,02,26,12.70
2014,07,01,02,27,12.70
2014,07,01,02,28,12.70
2014,07,01,02,29,12.70
2014,07,01,02,30,12.70
2014,07,01,02,31,12.70
2014,07,01,02,32,12.70
2014,07,01,02,33,12.70
2014,07,01,02,34,12.60
2014,07,01,02,35,12.60
2014,07,01,02,36,12.60
2014,07,01,02,37,12.60
2014,07,01,02,38,12.60
2014,07,01,02,39,12.60
2014,07,01,02,40,12.60
2014,07,01,02,41,12.60
2014,07,01,02,42,12.60
2014,07,01,02,43,12.60
2014,07,01,02,44,12.60
2014,07,01,02,45,12.60
2014,07,01,02,46,12.70
2014,07,01,02,47,12.60
2014,07,01,02,48,12.70
2014,07,01,02,49,12.60
2014,07,01,02,50,12.60
2014,07,01,02,51,12.60
2014,07,01,02,52,12.60
2014,07,01,02,53,12.60
2014,07,01,02,54,12.60
2014,07,01,02,55,12.60
2014,07,01,02,56,12.60
2014,07,01,02,57,12.60
2014,07,01,02,58,12.60
2014,07,01,02,59,12.60
2014,07,01,03,00,12.60
2014,07,01,03,01,12.60
2014,07,01,03,02,12.50
2014,07,01,03,03,12.50
2014,07,01,03,06,12.40
2014,07,01,03,07,12.40
2014,07,01,03,08,12.40
2014,07,01,03,09,12.40
2014,07,01,03,10,12.40
2014,07,01,03,11,12.40
2014,07,01,03,12,12.40
2014,07,01,03,13,12.40
2014,07,01,03,14,12.30
2014,07,01,03,15,12.30
2014,07,01,03,16,12.30
2014,07,01,03,17,12.30
2014,07,01,03,18,12.30
2014,07,01,03,19,12.30
2014,07,01,03,20,12.30
2014,07,01,03,21,12.30
2014,07,01,03,22,12.30
2014,07,01,03,23,12.30
2014,07,01,03,24,12.20
2014,07,01,03,25,12.20
2014,07,01,03,26,12.20
2014,07,01,03,27,12.20
2014,07,01,03,28,12.20
2014,07,01,03,29,12.20
2014,07,01,03,30,12.20
2014,07,01,03,31,12.20
2014,07,01,03,32,12.20
2014,07,01,03,33,12.20
2014,07,01,03,34,12.20
2014,07,01,03,35,12.20
2014,07,01,03,36,12.20
2014,07,01,03,37,12.10
2014,07,01,03,38,12.10
2014,07,01,03,39,12.10
2014,07,01,03,40,12.10
2014,07,01,03,41,12.10
2014,07,01,03,42,12.10
2014,07,01,03,43,12.10
2014,07,01,03,44,12.10
2014,07,01,03,45,12.10
2014,07,01,03,46,12.10
2014,07,01,03,47,12.10
2014,07,01,03,48,12.10
2014,07,01,03,49,12.10
2014,07,01,03,50,12.00
2014,07,01,03,51,12.00
2014,07,01,03,52,12.00
2014,07,01,03,53,12.00
2014,07,01,03,54,12.00
2014,07,01,03,55,12.00
2014,07,01,03,56,12.00
2014,07,01,03,57,12.00
2014,07,01,03,58,11.90
2014,07,01,03,59,11.90
2014,07,01,04,00,11.90
2014,07,01,04,01,11.90
2014,07,01,04,02,11.90
2014,07,01,04,03,11.90
2014,07,01,04,04,11.90
2014,07,01,04,05,11.90
2014,07,01,04,06,11.90
2014,07,01,04,07,11.80
2014,07,01,04,08,11.80
2014,07,01,04,09,11.80
2014,07,01,04,10,11.80
2014,07,01,04,11,11.80
2014,07,01,04,12,11.80
2014,07,01,04,13,11.80
2014,07,01,04,14,11.80
2014,07,01,04,15,11.80
2014,07,01,04,16,11.80
2014,07,01,04,17,11.70
2014,07,01,04,18,11.70
2014,07,01,04,19,11.70
2014,07,01,04,20,11.70
2014,07,01,04,21,11.70
2014,07,01,04,22,11.70
2014,07,01,04,23,11.70
2014,07,01,04,24,11.70
2014,07,01,04,25,11.70
2014,07,01,04,26,11.60
2014,07,01,04,27,11.60
2014,07,01,04,28,11.60
2014,07,01,04,29,11.60
2014,07,01,04,30,11.60
2014,07,01,04,31,11.60
2014,07,01,04,32,11.60
2014,07,01,04,33,11.60
2014,07,01,04,34,11.60
2014,07,01,04,35,11.60
2014,07,01,04,36,11.50
2014,07,01,04,37,11.50
2014,07,01,04,38,11.50
2014,07,01,04,39,11.50
2014,07,01,04,40,11.50
2014,07,01,04,41,11.50
2014,07,01,04,42,11.60
2014,07,01,04,43,11.60
2014,07,01,04,44,11.60
2014,07,01,04,45,11.60
2014,07,01,04,46,11.60
2014,07,01,04,47,11.60
2014,07,01,04,48,11.60
2014,07,01,04,49,11.60
2014,07,01,04,50,11.60
2014,07,01,04,51,11.60
2014,07,01,04,52,11.60
2014,07,01,04,53,11.60
2014,07,01,04,54,11.50
2014,07,01,04,55,11.50
2014,07,01,04,56,11.50
2014,07,01,04,57,11.50
2014,07,01,04,58,11.40
2014,07,01,04,59,11.40
2014,07,01,05,00,11.40
2014,07,01,05,01,11.40
2014,07,01,05,02,11.40
2014,07,01,05,03,11.40
2014,07,01,05,04,11.40
2014,07,01,05,05,11.40
2014,07,01,05,06,11.30
2014,07,01,05,07,11.30
2014,07,01,05,08,11.30
2014,07,01,05,09,11.30
2014,07,01,05,10,11.30
2014,07,01,05,11,11.30
2014,07,01,05,12,11.30
2014,07,01,05,13,11.30
2014,07,01,05,14,11.30
2014,07,01,05,15,11.30
2014,07,01,05,16,11.30
2014,07,01,05,17,11.30
2014,07,01,05,18,11.30
2014,07,01,05,19,11.30
2014,07,01,05,20,11.30
2014,07,01,05,21,11.30
2014,07,01,05,22,11.30
2014,07,01,05,23,11.30
2014,07,01,05,24,11.30
2014,07,01,05,25,11.30
2014,07,01,05,26,11.30
2014,07,01,05,27,11.30
2014,07,01,05,28,11.30
2014,07,01,05,29,11.30
2014,07,01,05,30,11.30
2014,07,01,05,31,11.30
2014,07,01,05,32,11.30
2014,07,01,05,33,11.30
2014,07,01,05,34,11.30
2014,07,01,05,35,11.30
2014,07,01,05,36,11.40
2014,07,01,05,37,11.40
2014,07,01,05,38,11.40
2014,07,01,05,39,11.30
2014,07,01,05,40,11.40
2014,07,01,05,41,11.30
2014,07,01,05,42,11.30
2014,07,01,05,43,11.30
2014,07,01,05,44,11.30
2014,07,01,05,45,11.30
2014,07,01,05,46,11.30
2014,07,01,05,47,11.30
2014,07,01,05,48,11.30
2014,07,01,05,49,11.30
2014,07,01,05,50,11.30
2014,07,01,05,51,11.30
2014,07,01,05,52,11.30
2014,07,01,05,53,11.30
2014,07,01,05,54,11.30
2014,07,01,05,55,11.30
2014,07,01,05,56,11.40
2014,07,01,05,57,11.40
2014,07,01,05,58,11.40
2014,07,01,05,59,11.40
2014,07,01,06,00,11.40
2014,07,01,06,01,11.40
2014,07,01,06,02,11.40
2014,07,01,06,03,11.50
2014,07,01,06,04,11.50
2014,07,01,06,05,11.50
2014,07,01,06,06,11.60
2014,07,01,06,07,11.60
2014,07,01,06,08,11.60
2014,07,01,06,09,11.70
2014,07,01,06,10,11.70
2014,07,01,06,11,11.70
2014,07,01,06,12,11.70
2014,07,01,06,13,11.80
2014,07,01,06,14,11.80
2014,07,01,06,15,11.90
2014,07,01,06,16,11.90
2014,07,01,06,17,12.00
2014,07,01,06,18,12.00
2014,07,01,06,19,12.10
2014,07,01,06,20,12.10
2014,07,01,06,21,12.10
2014,07,01,06,22,12.20
2014,07,01,06,23,12.20
2014,07,01,06,24,12.30
2014,07,01,06,25,12.30
2014,07,01,06,26,12.30
2014,07,01,06,27,12.40
2014,07,01,06,28,12.40
2014,07,01,06,29,12.50
2014,07,01,06,30,12.60
2014,07,01,06,31,12.70
2014,07,01,06,32,12.70
2014,07,01,06,33,12.80
2014,07,01,06,34,12.80
2014,07,01,06,35,12.90
2014,07,01,06,36,12.90
2014,07,01,06,37,13.00
2014,07,01,06,38,13.10
2014,07,01,06,39,13.10
2014,07,01,06,40,13.20
2014,07,01,06,41,13.30
2014,07,01,06,42,13.30
2014,07,01,06,43,13.40
2014,07,01,06,44,13.50
2014,07,01,06,45,13.50
2014,07,01,06,46,13.60
2014,07,01,06,47,13.70
2014,07,01,06,48,13.80
2014,07,01,06,49,13.80
2014,07,01,06,50,13.90
2014,07,01,06,51,14.00
2014,07,01,06,52,14.00
2014,07,01,06,53,14.10
2014,07,01,06,54,14.10
2014,07,01,06,55,14.20
2014,07,01,06,56,14.20
2014,07,01,06,57,14.30
2014,07,01,06,58,14.30
2014,07,01,06,59,14.40
2014,07,01,07,00,14.50
2014,07,01,07,01,14.60
2014,07,01,07,02,14.70
2014,07,01,07,03,14.80
2014,07,01,07,04,14.90
2014,07,01,07,05,15.00
2014,07,01,07,06,15.10
2014,07,01,07,07,15.30
2014,07,01,07,08,15.40
2014,07,01,07,09,15.50
2014,07,01,07,10,15.60
2014,07,01,07,11,15.80
2014,07,01,07,12,15.90
2014,07,01,07,13,16.00
2014,07,01,07,14,16.10
2014,07,01,07,15,16.20
2014,07,01,07,16,16.30
2014,07,01,07,17,16.30
2014,07,01,07,18,16.40
2014,07,01,07,19,16.50
2014,07,01,07,20,16.60
2014,07,01,07,21,16.60
2014,07,01,07,22,16.70
2014,07,01,07,23,16.80
2014,07,01,07,24,16.80
2014,07,01,07,25,16.90
2014,07,01,07,26,16.90
2014,07,01,07,27,17.00
2014,07,01,07,28,17.00
2014,07,01,07,29,17.10
2014,07,01,07,30,17.10
2014,07,01,07,31,17.20
2014,07,01,07,32,17.20
2014,07,01,07,33,17.30
2014,07,01,07,34,17.30
2014,07,01,07,35,17.40
2014,07,01,07,36,17.50
2014,07,01,07,37,17.50
2014,07,01,07,38,17.60
2014,07,01,07,39,17.60
2014,07,01,07,40,17.70
2014,07,01,07,41,17.80
2014,07,01,07,42,17.80
2014,07,01,07,43,17.90
2014,07,01,07,44,17.90
2014,07,01,07,45,18.00
2014,07,01,07,46,18.00
2014,07,01,07,47,18.00
2014,07,01,07,48,18.10
2014,07,01,07,49,18.10
2014,07,01,07,50,18.10
2014,07,01,07,51,18.20
2014,07,01,07,52,18.20
2014,07,01,07,53,18.30
2014,07,01,07,54,18.30
2014,07,01,07,55,18.30
2014,07,01,07,56,18.40
2014,07,01,07,57,18.40
2014,07,01,07,58,18.40
2014,07,01,07,59,18.40
2014,07,01,08,00,18.40
2014,07,01,08,01,18.40
2014,07,01,08,02,18.40
2014,07,01,08,03,18.40
2014,07,01,08,04,18.40
2014,07,01,08,05,18.30
2014,07,01,08,06,18.30
2014,07,01,08,07,18.30
2014,07,01,08,08,18.40
2014,07,01,08,09,18.40
2014,07,01,08,10,18.40
2014,07,01,08,11,18.40
2014,07,01,08,12,18.40
2014,07,01,08,13,18.50
2014,07,01,08,14,18.50
2014,07,01,08,15,18.50
2014,07,01,08,16,18.50
2014,07,01,08,17,18.60
2014,07,01,08,18,18.60
2014,07,01,08,19,18.70
2014,07,01,08,20,18.70
2014,07,01,08,21,18.80
2014,07,01,08,22,18.80
2014,07,01,08,23,18.90
2014,07,01,08,24,19.00
2014,07,01,08,25,19.10
2014,07,01,08,26,19.20
2014,07,01,08,27,19.30
2014,07,01,08,28,19.30
2014,07,01,08,29,19.40
2014,07,01,08,30,19.40
2014,07,01,08,31,19.50
2014,07,01,08,32,19.50
2014,07,01,08,33,19.60
2014,07,01,08,34,19.60
2014,07,01,08,35,19.70
2014,07,01,08,36,19.70
2014,07,01,08,37,19.70
2014,07,01,08,38,19.80
2014,07,01,08,39,19.80
2014,07,01,08,40,19.80
2014,07,01,08,41,19.90
2014,07,01,08,42,19.90
2014,07,01,08,43,20.00
2014,07,01,08,44,20.00
2014,07,01,08,45,20.10
2014,07,01,08,46,20.10
2014,07,01,08,47,20.20
2014,07,01,08,48,20.20
2014,07,01,08,49,20.30
2014,07,01,08,50,20.30
2014,07,01,08,51,20.30
2014,07,01,08,52,20.40
2014,07,01,08,53,20.40
2014,07,01,08,54,20.40
2014,07,01,08,55,20.50
2014,07,01,08,56,20.50
2014,07,01,08,57,20.60
2014,07,01,08,58,20.60
2014,07,01,08,59,20.60
2014,07,01,09,00,20.70
2014,07,01,09,01,20.70
2014,07,01,09,02,20.70
2014,07,01,09,03,20.70
2014,07,01,09,04,20.80
2014,07,01,09,05,20.80
2014,07,01,09,06,20.80
2014,07,01,09,07,20.80
2014,07,01,09,08,20.80
2014,07,01,09,09,20.90
2014,07,01,09,10,20.90
2014,07,01,09,11,20.90
2014,07,01,09,12,20.90
2014,07,01,09,13,21.00
2014,07,01,09,14,21.00
2014,07,01,09,15,21.10
2014,07,01,09,16,21.10
2014,07,01,09,17,21.10
2014,07,01,09,18,21.20
2014,07,01,09,19,21.30
2014,07,01,09,20,21.30
2014,07,01,09,21,21.40
2014,07,01,09,22,21.40
2014,07,01,09,23,21.40
2014,07,01,09,24,21.50
2014,07,01,09,25,21.50
2014,07,01,09,26,21.60
2014,07,01,09,27,21.60
2014,07,01,09,28,21.60
2014,07,01,09,29,21.60
2014,07,01,09,30,21.70
2014,07,01,09,31,21.70
2014,07,01,09,32,21.80
2014,07,01,09,33,21.80
2014,07,01,09,34,21.90
2014,07,01,09,35,22.00
2014,07,01,09,36,22.10
2014,07,01,09,37,22.20
2014,07,01,09,38,22.30
2014,07,01,09,39,22.40
2014,07,01,09,40,22.50
2014,07,01,09,41,22.60
2014,07,01,09,42,22.80
2014,07,01,09,43,22.90
2014,07,01,09,44,23.00
2014,07,01,09,45,23.10
2014,07,01,09,46,23.20
2014,07,01,09,47,23.30
2014,07,01,09,48,23.30
2014,07,01,09,49,23.40
2014,07,01,09,50,23.40
2014,07,01,09,51,23.40
2014,07,01,09,52,23.40
2014,07,01,09,53,23.50
2014,07,01,09,54,23.50
2014,07,01,09,55,23.50
2014,07,01,09,56,23.50
2014,07,01,09,57,23.40
2014,07,01,09,58,23.40
2014,07,01,09,59,23.30
2014,07,01,10,00,23.20
2014,07,01,10,01,23.10
2014,07,01,10,02,23.10
2014,07,01,10,03,23.10
2014,07,01,10,04,23.00
2014,07,01,10,05,23.00
2014,07,01,10,06,22.90
2014,07,01,10,07,22.90
2014,07,01,10,08,22.90
2014,07,01,10,09,22.80
2014,07,01,10,10,22.80
2014,07,01,10,11,22.70
2014,07,01,10,12,22.70
2014,07,01,10,13,22.70
2014,07,01,10,14,22.70
2014,07,01,10,15,22.80
2014,07,01,10,16,22.80
2014,07,01,10,17,22.90
2014,07,01,10,18,23.00
2014,07,01,10,19,23.10
2014,07,01,10,20,23.20
2014,07,01,10,21,23.20
2014,07,01,10,22,23.40
2014,07,01,10,23,23.40
2014,07,01,10,24,23.60
2014,07,01,10,25,23.60
2014,07,01,10,26,23.70
2014,07,01,10,27,23.80
2014,07,01,10,28,23.80
2014,07,01,10,29,23.80
2014,07,01,10,30,23.90
2014,07,01,10,31,23.90
2014,07,01,10,32,24.00
2014,07,01,10,33,24.10
2014,07,01,10,34,24.20
2014,07,01,10,35,24.30
2014,07,01,10,36,24.40
2014,07,01,10,37,24.40
2014,07,01,10,38,24.50
2014,07,01,10,39,24.60
2014,07,01,10,40,24.70
2014,07,01,10,41,24.70
2014,07,01,10,42,24.80
2014,07,01,10,43,24.80
2014,07,01,10,44,24.90
2014,07,01,10,45,24.90
2014,07,01,10,46,24.90
2014,07,01,10,47,25.00
2014,07,01,10,48,25.00
2014,07,01,10,49,25.00
2014,07,01,10,50,25.10
2014,07,01,10,51,25.10
2014,07,01,10,52,25.10
2014,07,01,10,53,25.10
2014,07,01,10,54,25.10
2014,07,01,10,55,24.90
2014,07,01,10,56,24.80
2014,07,01,10,57,24.60
2014,07,01,10,58,24.50
2014,07,01,10,59,24.40
2014,07,01,11,00,24.30
2014,07,01,11,01,24.20
2014,07,01,11,02,24.20
2014,07,01,11,03,24.20
2014,07,01,11,04,24.10
2014,07,01,11,05,24.10
2014,07,01,11,06,24.10
2014,07,01,11,07,24.10
2014,07,01,11,08,24.10
2014,07,01,11,09,24.00
2014,07,01,11,10,24.00
2014,07,01,11,11,24.10
2014,07,01,11,12,24.10
2014,07,01,11,13,24.20
2014,07,01,11,14,24.20
2014,07,01,11,15,24.20
2014,07,01,11,16,24.20
2014,07,01,11,17,24.20
2014,07,01,11,18,24.20
2014,07,01,11,19,24.20
2014,07,01,11,20,24.20
2014,07,01,11,21,24.20
2014,07,01,11,22,24.20
2014,07,01,11,23,24.20
2014,07,01,11,24,24.20
2014,07,01,11,25,24.30
2014,07,01,11,26,24.30
2014,07,01,11,27,24.40
2014,07,01,11,28,24.40
2014,07,01,11,29,24.50
2014,07,01,11,30,24.60
2014,07,01,11,31,24.70
2014,07,01,11,32,24.80
2014,07,01,11,33,24.80
2014,07,01,11,34,24.90
2014,07,01,11,35,24.90
2014,07,01,11,36,24.90
2014,07,01,11,37,24.90
2014,07,01,11,38,24.90
2014,07,01,11,39,24.90
2014,07,01,11,40,25.00
2014,07,01,11,41,25.00
2014,07,01,11,42,25.00
2014,07,01,11,43,25.00
2014,07,01,11,44,25.10
2014,07,01,11,45,25.10
2014,07,01,11,46,25.20
2014,07,01,11,47,25.30
2014,07,01,11,48,25.40
2014,07,01,11,49,25.40
2014,07,01,11,50,25.50
2014,07,01,11,51,25.60
2014,07,01,11,52,25.60
2014,07,01,11,53,25.60
2014,07,01,11,54,25.70
2014,07,01,11,55,25.70
2014,07,01,11,56,25.90
2014,07,01,11,57,26.00
2014,07,01,11,58,26.10
2014,07,01,11,59,26.10
2014,07,01,12,00,26.20
2014,07,01,12,01,26.20
2014,07,01,12,02,26.20
2014,07,01,12,03,26.30
2014,07,01,12,04,26.30
2014,07,01,12,05,26.40
2014,07,01,12,06,26.50
2014,07,01,12,07,26.60
2014,07,01,12,08,26.70
2014,07,01,12,09,26.80
2014,07,01,12,10,26.90
2014,07,01,12,11,27.00
2014,07,01,12,12,27.10
2014,07,01,12,13,27.20
2014,07,01,12,14,27.20
2014,07,01,12,15,27.30
2014,07,01,12,16,27.30
2014,07,01,12,17,27.30
2014,07,01,12,18,27.30
2014,07,01,12,19,27.30
2014,07,01,12,20,27.30
2014,07,01,12,21,27.30
2014,07,01,12,22,27.30
2014,07,01,12,23,27.30
2014,07,01,12,24,27.30
2014,07,01,12,25,27.30
2014,07,01,12,26,27.30
2014,07,01,12,27,27.20
2014,07,01,12,28,27.20
2014,07,01,12,29,27.20
2014,07,01,12,30,27.30
2014,07,01,12,31,27.30
2014,07,01,12,32,27.40
2014,07,01,12,33,27.50
2014,07,01,12,34,27.50
2014,07,01,12,35,27.60
2014,07,01,12,36,27.60
2014,07,01,12,37,27.60
2014,07,01,12,38,27.60
2014,07,01,12,39,27.70
2014,07,01,12,40,27.70
2014,07,01,12,41,27.70
2014,07,01,12,42,27.70
2014,07,01,12,43,27.60
2014,07,01,12,44,27.50
2014,07,01,12,45,27.50
2014,07,01,12,46,27.50
2014,07,01,12,47,27.50
2014,07,01,12,48,27.60
2014,07,01,12,49,27.60
2014,07,01,12,50,27.60
2014,07,01,12,51,27.60
2014,07,01,12,52,27.70
2014,07,01,12,53,27.70
2014,07,01,12,54,27.70
2014,07,01,12,55,27.80
2014,07,01,12,56,27.80
2014,07,01,12,57,27.90
2014,07,01,12,58,27.90
2014,07,01,12,59,27.90
2014,07,01,13,00,27.80
2014,07,01,13,01,27.70
2014,07,01,13,02,27.60
2014,07,01,13,03,27.50
2014,07,01,13,04,27.40
2014,07,01,13,05,27.30
2014,07,01,13,06,27.20
2014,07,01,13,07,27.10
2014,07,01,13,08,27.00
2014,07,01,13,09,26.90
2014,07,01,13,10,26.80
2014,07,01,13,11,26.80
2014,07,01,13,12,26.80
2014,07,01,13,13,26.80
2014,07,01,13,14,26.70
2014,07,01,13,15,26.60
2014,07,01,13,16,26.60
2014,07,01,13,17,26.60
2014,07,01,13,18,26.60
2014,07,01,13,19,26.70
2014,07,01,13,20,26.70
2014,07,01,13,21,26.80
2014,07,01,13,22,26.90
2014,07,01,13,23,26.90
2014,07,01,13,24,26.90
2014,07,01,13,25,27.00
2014,07,01,13,26,27.00
2014,07,01,13,27,27.10
2014,07,01,13,28,27.10
2014,07,01,13,29,27.10
2014,07,01,13,30,27.20
2014,07,01,13,31,27.20
2014,07,01,13,32,27.20
2014,07,01,13,33,27.20
2014,07,01,13,34,27.20
2014,07,01,13,35,27.20
2014,07,01,13,36,27.20
2014,07,01,13,37,27.20
2014,07,01,13,38,27.30
2014,07,01,13,39,27.40
2014,07,01,13,40,27.40
2014,07,01,13,41,27.40
2014,07,01,13,42,27.50
2014,07,01,13,43,27.50
2014,07,01,13,44,27.60
2014,07,01,13,45,27.60
2014,07,01,13,46,27.70
2014,07,01,13,47,27.80
2014,07,01,13,48,27.80
2014,07,01,13,49,27.90
2014,07,01,13,50,27.90
2014,07,01,13,51,28.00
2014,07,01,13,52,28.10
2014,07,01,13,53,28.10
2014,07,01,13,54,28.20
2014,07,01,13,55,28.20
2014,07,01,13,56,28.30
2014,07,01,13,57,28.40
2014,07,01,13,58,28.40
2014,07,01,13,59,28.40
2014,07,01,14,00,28.30
2014,07,01,14,01,28.20
2014,07,01,14,02,28.20
2014,07,01,14,03,28.30
2014,07,01,14,04,28.30
2014,07,01,14,05,28.30
2014,07,01,14,06,28.20
2014,07,01,14,07,28.10
2014,07,01,14,08,28.00
2014,07,01,14,09,27.90
2014,07,01,14,10,27.90
2014,07,01,14,11,27.80
2014,07,01,14,12,27.70
2014,07,01,14,13,27.70
2014,07,01,14,14,27.70
2014,07,01,14,15,27.60
2014,07,01,14,16,27.60
2014,07,01,14,17,27.50
2014,07,01,14,18,27.40
2014,07,01,14,19,27.30
2014,07,01,14,20,27.20
2014,07,01,14,21,27.10
2014,07,01,14,22,27.00
2014,07,01,14,23,27.00
2014,07,01,14,24,27.00
2014,07,01,14,25,27.00
2014,07,01,14,26,27.00
2014,07,01,14,27,27.00
2014,07,01,14,28,26.90
2014,07,01,14,29,26.90
2014,07,01,14,30,26.80
2014,07,01,14,31,26.90
2014,07,01,14,32,26.90
2014,07,01,14,33,26.90
2014,07,01,14,34,27.00
2014,07,01,14,35,27.00
2014,07,01,14,36,27.00
2014,07,01,14,37,27.10
2014,07,01,14,38,27.20
2014,07,01,14,39,27.20
2014,07,01,14,40,27.30
2014,07,01,14,41,27.30
2014,07,01,14,42,27.30
2014,07,01,14,43,27.30
2014,07,01,14,44,27.40
2014,07,01,14,45,27.40
2014,07,01,14,46,27.40
2014,07,01,14,47,27.50
2014,07,01,14,48,27.50
2014,07,01,14,49,27.50
2014,07,01,14,50,27.50
2014,07,01,14,51,27.50
2014,07,01,14,52,27.40
2014,07,01,14,53,27.50
2014,07,01,14,54,27.50
2014,07,01,14,55,27.60
2014,07,01,14,56,27.60
2014,07,01,14,57,27.70
2014,07,01,14,58,27.70
2014,07,01,14,59,27.80
2014,07,01,15,00,27.80
2014,07,01,15,01,27.90
2014,07,01,15,02,28.00
2014,07,01,15,03,28.10
2014,07,01,15,04,28.10
2014,07,01,15,05,28.10
2014,07,01,15,06,28.00
2014,07,01,15,07,28.00
2014,07,01,15,08,27.90
2014,07,01,15,09,27.90
2014,07,01,15,10,27.90
2014,07,01,15,11,27.90
2014,07,01,15,12,27.90
2014,07,01,15,13,27.90
2014,07,01,15,14,28.00
2014,07,01,15,15,28.00
2014,07,01,15,16,28.10
2014,07,01,15,17,28.20
2014,07,01,15,18,28.20
2014,07,01,15,19,28.30
2014,07,01,15,20,28.40
2014,07,01,15,21,28.50
2014,07,01,15,22,28.60
2014,07,01,15,23,28.60
2014,07,01,15,24,28.50
2014,07,01,15,25,28.50
2014,07,01,15,26,28.40
2014,07,01,15,27,28.30
2014,07,01,15,28,28.30
2014,07,01,15,29,28.30
2014,07,01,15,30,28.40
2014,07,01,15,31,28.50
2014,07,01,15,32,28.60
2014,07,01,15,33,28.80
2014,07,01,15,34,28.90
2014,07,01,15,35,28.90
2014,07,01,15,36,28.90
2014,07,01,15,37,28.90
2014,07,01,15,38,28.90
2014,07,01,15,39,28.90
2014,07,01,15,40,28.90
2014,07,01,15,41,28.80
2014,07,01,15,42,28.80
2014,07,01,15,43,28.90
2014,07,01,15,44,28.90
2014,07,01,15,45,28.90
2014,07,01,15,46,28.90
2014,07,01,15,47,28.90
2014,07,01,15,48,28.90
2014,07,01,15,49,28.90
2014,07,01,15,50,28.90
2014,07,01,15,51,29.00
2014,07,01,15,52,29.00
2014,07,01,15,53,29.00
2014,07,01,15,54,29.00
2014,07,01,15,55,29.00
2014,07,01,15,56,29.10
2014,07,01,15,57,29.20
2014,07,01,15,58,29.20
2014,07,01,15,59,29.30
2014,07,01,16,00,29.30
2014,07,01,16,01,29.30
2014,07,01,16,02,29.40
2014,07,01,16,03,29.40
2014,07,01,16,04,29.40
2014,07,01,16,05,29.40
2014,07,01,16,06,29.40
2014,07,01,16,07,29.40
2014,07,01,16,08,29.30
2014,07,01,16,09,29.30
2014,07,01,16,10,29.20
2014,07,01,16,11,29.10
2014,07,01,16,12,29.00
2014,07,01,16,13,28.90
2014,07,01,16,14,28.80
2014,07,01,16,15,28.70
2014,07,01,16,16,28.70
2014,07,01,16,17,28.60
2014,07,01,16,18,28.60
2014,07,01,16,19,28.50
2014,07,01,16,20,28.50
2014,07,01,16,21,28.40
2014,07,01,16,22,28.40
2014,07,01,16,23,28.40
2014,07,01,16,24,28.40
2014,07,01,16,25,28.50
2014,07,01,16,26,28.50
2014,07,01,16,27,28.60
2014,07,01,16,28,28.70
2014,07,01,16,29,28.80
2014,07,01,16,30,28.80
2014,07,01,16,31,28.90
2014,07,01,16,32,28.90
2014,07,01,16,33,28.80
2014,07,01,16,34,28.80
2014,07,01,16,35,28.80
2014,07,01,16,36,28.70
2014,07,01,16,37,28.70
2014,07,01,16,38,28.70
2014,07,01,16,39,28.70
2014,07,01,16,40,28.70
2014,07,01,16,41,28.80
2014,07,01,16,42,28.90
2014,07,01,16,43,29.00
2014,07,01,16,44,29.10
2014,07,01,16,45,29.20
2014,07,01,16,46,29.30
2014,07,01,16,47,29.40
2014,07,01,16,48,29.40
2014,07,01,16,49,29.40
2014,07,01,16,50,29.50
2014,07,01,16,51,29.60
2014,07,01,16,52,29.60
2014,07,01,16,53,29.60
2014,07,01,16,54,29.60
2014,07,01,16,55,29.60
2014,07,01,16,56,29.60
2014,07,01,16,57,29.60
2014,07,01,16,58,29.60
2014,07,01,16,59,29.70
2014,07,01,17,00,29.80
2014,07,01,17,01,29.90
2014,07,01,17,02,30.00
2014,07,01,17,03,30.20
2014,07,01,17,04,30.30
2014,07,01,17,05,30.40
2014,07,01,17,06,30.60
2014,07,01,17,07,30.70
2014,07,01,17,08,30.80
2014,07,01,17,09,31.00
2014,07,01,17,10,31.10
2014,07,01,17,11,31.20
2014,07,01,17,12,31.30
2014,07,01,17,13,31.40
2014,07,01,17,14,31.50
2014,07,01,17,15,31.60
2014,07,01,17,16,31.60
2014,07,01,17,17,31.50
2014,07,01,17,18,31.40
2014,07,01,17,19,31.20
2014,07,01,17,20,31.00
2014,07,01,17,21,30.80